[[{"header":{"parameterUnit":"m.s-1","parameterCategory":1,"la1":30.2991,"la2":30.254,"lo1":-89.0895,"lo2":-89.0444,"dy":0.0017,"dx":0.0017,"nx":28,"ny":28,"refTime":"2024-06-13T03:00:00:Z","depth":0,"parameterNumber":2,"parameterNumberName":"U-component_of_WINDS"},"data":[0,0,0,0,0,0,0,0,0,0,0,0,0,0,0,0,0,0,0,0,0,0,0,0,0,0,0,0,0,0,0,0,0,0,0,0,0,0,0,0,0,0,0,0,0,0,0,0,0,0,0,0,0,0,0,0,0,0,0.1706,0.1706,0,0.1744,0.1745,0.1745,0.1784,0.1784,0.1785,0.1785,0.1825,0.1826,0.1826,0,0,0,0,0,0,0,0,0,0,0,0,0,0.1665,0.1665,0.1706,0.1706,0.1707,0.1744,0.1745,0.1745,0.1784,0.1784,0.1785,0.1786,0.1825,0.1826,0.1826,0,0,0,0,0,0,0,0,0,0,0,0,0,0.1691,0.1665,0.1706,0.1731,0.1733,0.1744,0.1745,0.1746,0.1784,0.1784,0.1785,0.1786,0.1825,0.1825,0.1826,0.1816,0,0,0.1829,0.1829,0,0,0,0,0,0,0,0,0.1689,0.1692,0.1726,0.1729,0.1732,0.176,0.1745,0.1769,0.1783,0.1764,0.1785,0.1786,0.1803,0.1806,0.1811,0.1818,0.182,0.1829,0.183,0.183,0.183,0,0,0,0,0,0,0,0.1687,0.1691,0.1721,0.1727,0.173,0.1739,0.1744,0.175,0.1779,0.1766,0.1769,0.1773,0.1804,0.181,0.1812,0.182,0.1829,0.183,0.183,0.1831,0.1819,0.1818,0,0,0,0,0,0,0.1682,0.1689,0.172,0.1722,0.1712,0.1739,0.1745,0.175,0.1779,0.1784,0.1772,0.1775,0.1808,0.1811,0.1814,0.1802,0.183,0.1831,0.1831,0.182,0.1819,0.1818,0,0,0,0,0,0,0.1681,0.1684,0.1718,0.1706,0.1712,0.1739,0.1745,0.1751,0.1756,0.1784,0.1789,0.1773,0.1809,0.1813,0.1815,0.1804,0.1831,0.1832,0.1821,0.182,0.1818,0.178,0,0,0,0,0,0,0.168,0.1684,0.168,0.1706,0.1712,0.1719,0.1745,0.1751,0.1758,0.1761,0.1785,0.179,0.181,0.1813,0.1816,0.1806,0.1833,0.1822,0.182,0.1819,0.1783,0.1778,0.1774,0,0,0,0,0,0.1678,0.1669,0.168,0.1684,0.1708,0.1718,0.1722,0.1744,0.1757,0.1753,0.1771,0.1789,0.1805,0.1813,0.1816,0.1807,0.1823,0.1821,0.1819,0.1785,0.1779,0.1774,0,0,0,0,0,0,0.1641,0.1673,0.1686,0.1684,0.1698,0.1725,0.1721,0.1738,0.1749,0.1751,0.1779,0.1784,0.1783,0.1795,0.1804,0.1798,0.1817,0.1815,0.1789,0.1784,0.178,0.1777,0.1833,0,0,0,0,0,0.1633,0.1639,0.1666,0.1662,0.1668,0.1693,0.1698,0.1715,0.173,0.1736,0.1754,0.1768,0.1776,0.1781,0.179,0.1785,0.179,0.178,0.1775,0.1772,0.177,0.1766,0.1761,0.1812,0.1812,0.1812,0,0,0.1616,0.1634,0.1636,0.1655,0.1668,0.1672,0.1698,0.1702,0.1705,0.1737,0.174,0.1753,0.1771,0.1769,0.1769,0.1779,0.1757,0.1769,0.1766,0.1766,0.1764,0.1759,0.1755,0.1811,0.1811,0.1811,0,0,0.1587,0.1602,0.1599,0.1611,0.163,0.1647,0.1646,0.167,0.168,0.1683,0.1706,0.171,0.1724,0.1735,0.1743,0.1717,0.1734,0.1719,0.1696,0.1692,0.1688,0.1685,0.1674,0.167,0.1717,0.1717,0.1717,0,0.1564,0.1572,0.1596,0.1598,0.1605,0.1634,0.1631,0.1642,0.1662,0.1666,0.1677,0.1694,0.1708,0.1708,0.1702,0.1707,0.1707,0.1716,0.1687,0.1683,0.1681,0.167,0.1667,0.1715,0.1715,0.1716,0.1716,0,0.1541,0.1546,0.1542,0.156,0.1567,0.1567,0.1591,0.1595,0.161,0.1625,0.1627,0.1645,0.1657,0.1659,0.1674,0.166,0.1666,0.1681,0.1701,0.1673,0.1664,0.1661,0.1712,0.1713,0.1714,0.1714,0,0,0.149,0.1522,0.152,0.1528,0.155,0.1554,0.1554,0.1566,0.1568,0.1581,0.1582,0.1592,0.1606,0.1614,0.1631,0.1628,0.1604,0.1644,0.1645,0.1635,0.1588,0.1575,0.157,0.1616,0.1615,0.1615,0.1586,0,0.1464,0.1467,0.1488,0.1484,0.1488,0.1515,0.1515,0.1528,0.1542,0.1547,0.1563,0.1569,0.1588,0.1593,0.1591,0.1607,0.1595,0.161,0.1615,0.1615,0.1609,0.1566,0.1553,0.1525,0.1583,0.1582,0.1582,0,0.1434,0.1444,0.1441,0.1462,0.1464,0.1464,0.1476,0.1481,0.1496,0.1506,0.1514,0.1533,0.1534,0.1553,0.1554,0.1564,0.1568,0.1576,0.1575,0.1576,0.1596,0.1564,0.1517,0.1512,0.1577,0.1577,0.1578,0,0.1395,0.1409,0.1408,0.1414,0.1439,0.1438,0.1448,0.1464,0.1469,0.1479,0.1483,0.1493,0.1498,0.1506,0.1526,0.1538,0.1525,0.1546,0.1532,0.1532,0.1528,0.1527,0.1479,0.1532,0.1532,0.1532,0.1532,0,0.1363,0.1359,0.139,0.139,0.1386,0.1411,0.1406,0.1419,0.1433,0.1434,0.1458,0.1459,0.1487,0.1491,0.1507,0.1505,0.1508,0.1515,0.1519,0.1512,0.1511,0.1514,0.1516,0.1531,0.1531,0.1531,0.1532,0,0.1319,0.134,0.134,0.1363,0.1369,0.1365,0.1385,0.1384,0.14,0.1401,0.1403,0.1427,0.1433,0.1454,0.1465,0.1476,0.1468,0.1477,0.1463,0.1465,0.145,0.145,0.1401,0.1395,0.1453,0.1452,0.1452,0,0.1297,0.1294,0.1317,0.1319,0.1328,0.1333,0.1338,0.1362,0.1366,0.1382,0.138,0.1387,0.1394,0.1402,0.142,0.1428,0.1437,0.1419,0.1438,0.1431,0.1435,0.1434,0.1433,0.1414,0.1414,0.1413,0.1413,0,0.1254,0.1264,0.127,0.128,0.1285,0.1294,0.1304,0.1305,0.1332,0.1335,0.1341,0.1346,0.1357,0.1364,0.1375,0.1385,0.1402,0.1406,0.1404,0.1396,0.1387,0.139,0.145,0.1407,0.1408,0.1408,0.1409,0.1409,0.1219,0.1217,0.1232,0.1238,0.1249,0.1257,0.1258,0.1273,0.1278,0.1288,0.1302,0.1306,0.132,0.1336,0.1345,0.1348,0.1358,0.1354,0.1353,0.1351,0.1347,0.1387,0.135,0.135,0.135,0.1351,0.1351,0,0.1176,0.1187,0.1192,0.1205,0.1209,0.1226,0.1238,0.124,0.1243,0.1255,0.1261,0.1267,0.1273,0.1291,0.1299,0.1298,0.1306,0.1299,0.1299,0.13,0.1338,0.1339,0.1292,0.1292,0.1292,0.1292,0.1292,0.1292,0.1154,0.1152,0.1163,0.1166,0.1177,0.118,0.1186,0.1193,0.1202,0.1208,0.1213,0.1225,0.1239,0.1248,0.1254,0.1259,0.126,0.125,0.1257,0.1292,0.1298,0.1303,0.1304,0.125,0.125,0.1219,0.1219,0.1219]},{"header":{"parameterUnit":"m.s-1","parameterCategory":1,"la1":30.2991,"la2":30.254,"lo1":-89.0895,"lo2":-89.0444,"dy":0.0017,"dx":0.0017,"nx":28,"ny":28,"refTime":"2024-06-13T03:00:00:Z","depth":0,"parameterNumber":3,"parameterNumberName":"V-component_of_WINDS"},"data":[0,0,0,0,0,0,0,0,0,0,0,0,0,0,0,0,0,0,0,0,0,0,0,0,0,0,0,0,0,0,0,0,0,0,0,0,0,0,0,0,0,0,0,0,0,0,0,0,0,0,0,0,0,0,0,0,0,0,3.0801,3.0801,0,3.0759,3.0759,3.0758,3.0722,3.0722,3.0721,3.0721,3.0673,3.0672,3.0671,0,0,0,0,0,0,0,0,0,0,0,0,0,3.0848,3.0847,3.0801,3.0801,3.08,3.0759,3.0758,3.0758,3.0722,3.0722,3.0721,3.0721,3.0674,3.0672,3.0671,0,0,0,0,0,0,0,0,0,0,0,0,0,3.0818,3.0847,3.0801,3.0778,3.0775,3.0759,3.0758,3.0758,3.0722,3.0722,3.0721,3.0721,3.0674,3.0673,3.0671,3.0674,0,0,3.0667,3.0666,0,0,0,0,0,0,0,0,3.082,3.0817,3.0782,3.0779,3.0776,3.0745,3.0757,3.073,3.0722,3.0742,3.0721,3.072,3.0697,3.0694,3.0687,3.0672,3.067,3.0667,3.0666,3.0666,3.0665,0,0,0,0,0,0,0,3.0822,3.0818,3.0784,3.0781,3.0778,3.0768,3.0763,3.0752,3.0723,3.074,3.0738,3.0733,3.0696,3.0689,3.0686,3.0669,3.0667,3.0666,3.0665,3.0664,3.0654,3.0654,0,0,0,0,0,0,3.0828,3.082,3.0786,3.0783,3.0797,3.0767,3.0762,3.0756,3.0723,3.0718,3.0734,3.0732,3.0691,3.0687,3.0684,3.0685,3.0666,3.0664,3.0663,3.0653,3.0654,3.0654,0,0,0,0,0,0,3.083,3.0826,3.0787,3.0801,3.0795,3.0767,3.076,3.0755,3.0748,3.0719,3.0713,3.0732,3.0691,3.0686,3.0677,3.0683,3.0664,3.0662,3.0652,3.0653,3.0654,3.0687,0,0,0,0,0,0,3.0831,3.0826,3.0828,3.0801,3.0795,3.0783,3.0761,3.0755,3.0746,3.0743,3.0715,3.071,3.069,3.0679,3.0676,3.068,3.0661,3.0652,3.0653,3.0654,3.0685,3.0689,3.0692,0,0,0,0,0,3.0833,3.0838,3.0828,3.0824,3.0797,3.0783,3.0779,3.0757,3.0747,3.0748,3.0729,3.0711,3.0683,3.0679,3.0674,3.0679,3.0651,3.0653,3.0654,3.0684,3.0688,3.0692,0,0,0,0,0,0,3.0865,3.0834,3.0823,3.082,3.0805,3.0777,3.0777,3.0762,3.0748,3.0746,3.0717,3.0711,3.0705,3.0691,3.0687,3.068,3.0665,3.0665,3.0689,3.0693,3.0696,3.0699,3.066,0,0,0,0,0,3.0872,3.0865,3.0838,3.0838,3.0831,3.0806,3.0799,3.0783,3.0765,3.0758,3.0739,3.0721,3.0708,3.07,3.0686,3.0684,3.0676,3.0684,3.0688,3.0691,3.0691,3.0687,3.069,3.0658,3.0658,3.0658,0,0,3.0886,3.0868,3.0865,3.0844,3.083,3.0822,3.08,3.0793,3.0786,3.0756,3.0747,3.0732,3.071,3.0705,3.0701,3.0692,3.0698,3.0692,3.0695,3.0693,3.0689,3.0692,3.0695,3.0659,3.0659,3.0659,0,0,3.0907,3.0893,3.0892,3.0879,3.0858,3.0842,3.0841,3.0816,3.0805,3.0796,3.0774,3.0765,3.0743,3.0729,3.0718,3.0734,3.0717,3.0731,3.0747,3.0744,3.0747,3.0749,3.0754,3.0756,3.0731,3.0731,3.0731,0,3.0926,3.0914,3.0892,3.0886,3.0877,3.0852,3.0849,3.0837,3.0813,3.0807,3.0798,3.0771,3.0754,3.0744,3.0748,3.0741,3.0739,3.0733,3.0749,3.0751,3.0752,3.0756,3.0758,3.0733,3.0733,3.0733,3.0732,0,3.0938,3.0931,3.0931,3.091,3.0901,3.0897,3.0873,3.0867,3.0852,3.0836,3.0826,3.0806,3.0788,3.0784,3.0769,3.0772,3.0767,3.0754,3.0738,3.0757,3.0761,3.0762,3.0736,3.0735,3.0734,3.0734,0,0,3.0977,3.0945,3.0946,3.0936,3.0912,3.0904,3.0899,3.0882,3.0877,3.0861,3.0854,3.0837,3.0825,3.0813,3.0797,3.0794,3.0807,3.0781,3.078,3.0786,3.0808,3.0817,3.0819,3.0796,3.0796,3.0796,3.0809,0,3.0994,3.0983,3.0963,3.0959,3.095,3.0927,3.0921,3.0905,3.089,3.088,3.0863,3.0851,3.0836,3.0829,3.0826,3.0806,3.0811,3.0805,3.0788,3.0788,3.0793,3.0821,3.0831,3.0844,3.081,3.0811,3.0811,0,3.1011,3.0998,3.0993,3.097,3.0965,3.0961,3.0945,3.0936,3.0917,3.0906,3.0893,3.0875,3.0866,3.0853,3.084,3.0836,3.0828,3.0818,3.0818,3.0814,3.08,3.0817,3.0847,3.0849,3.0813,3.0813,3.0812,0,3.1039,3.102,3.1014,3.1007,3.098,3.0977,3.0965,3.0946,3.0938,3.0923,3.0916,3.09,3.0891,3.0878,3.0856,3.0848,3.0844,3.0829,3.0834,3.0834,3.0833,3.0833,3.0861,3.083,3.083,3.083,3.083,0,3.1058,3.1056,3.1027,3.1023,3.1019,3.0996,3.0993,3.0979,3.0962,3.0954,3.0932,3.0925,3.0897,3.0886,3.0868,3.0859,3.0855,3.0845,3.084,3.0846,3.0847,3.084,3.0838,3.083,3.083,3.083,3.083,0,3.1088,3.1069,3.1061,3.1037,3.103,3.1028,3.1007,3.1002,3.0986,3.0976,3.0972,3.0947,3.0933,3.091,3.0889,3.0877,3.0871,3.0863,3.0877,3.0874,3.088,3.0879,3.0903,3.0904,3.0873,3.0873,3.0874,0,3.1102,3.1099,3.1075,3.1069,3.1059,3.1049,3.1041,3.1018,3.101,3.0988,3.0985,3.097,3.0957,3.0935,3.0914,3.0897,3.0888,3.0898,3.0886,3.0892,3.0887,3.0887,3.0886,3.09,3.0901,3.0901,3.0901,0,3.1127,3.1118,3.1107,3.1093,3.1084,3.1071,3.1058,3.1054,3.1027,3.1019,3.1005,3.0995,3.0974,3.0959,3.094,3.0926,3.0909,3.0906,3.0906,3.0912,3.092,3.0914,3.0884,3.0905,3.0905,3.0904,3.0904,3.0904,3.1148,3.1145,3.1128,3.1116,3.1104,3.1092,3.1086,3.107,3.1058,3.1041,3.1028,3.1015,3.0995,3.0968,3.0955,3.0943,3.0936,3.0936,3.0936,3.0936,3.0938,3.0923,3.094,3.094,3.094,3.094,3.0939,0,3.1172,3.116,3.115,3.1132,3.1123,3.111,3.1094,3.1086,3.1076,3.106,3.1048,3.1031,3.1017,3.0994,3.0977,3.0972,3.0964,3.0968,3.0968,3.0965,3.0946,3.0948,3.0975,3.0975,3.0975,3.0975,3.0975,3.0975,3.1183,3.1177,3.1165,3.1152,3.1139,3.1128,3.112,3.1108,3.1095,3.1079,3.1067,3.1053,3.1034,3.1016,3.1001,3.0995,3.0989,3.0996,3.0987,3.097,3.0966,3.0963,3.0964,3.0995,3.0995,3.1006,3.1006,3.1006]}]]